Waarnemingen

Advertentie
Mijn weer
Ibiza/Es Codola, Spanje (8373): temperatuur & dauwpunt: 12.11.2018 17:00:00 - 18.11.2018 17:00:00 (CET)Ibiza/Es Codola, Spanje (8373): windsnelheid: 12.11.2018 17:00:00 - 18.11.2018 17:00:00 (CET)Ibiza/Es Codola, Spanje (8373): windrichting: 12.11.2018 17:00:00 - 18.11.2018 17:00:00 (CET)Ibiza/Es Codola, Spanje (8373): luchtdruk: 12.11.2018 17:00:00 - 18.11.2018 17:00:00 (CET)Ibiza/Es Codola, Spanje (8373): zicht: 12.11.2018 17:00:00 - 18.11.2018 17:00:00 (CET)
Datum & Tijd tt [°C] td [°C] ff [km/u] ff [kn] dd ppp [hPa] vv [km]
18.11.2018 17:00:00 16,4 8,8 26 14 O 1006,3 10
18.11.2018 16:00:00 16,7 9,5 24 13 ONO 1006,7 30
18.11.2018 15:00:00 16,9 8,3 22 12 O 1007,0 10
18.11.2018 14:00:00 17,9 9,4 21 11 O 1007,5 10
18.11.2018 13:00:00 17,1 9,0 21 11 O 1008,0 10
18.11.2018 12:00:00 17,0 9,9 18 10 O 1009,2 10
18.11.2018 11:00:00 16,6 9,8 16 9 O 1010,0 10
18.11.2018 10:00:00 16,2 9,4 16 9 O 1010,2 10
18.11.2018 09:00:00 14,7 9,5 11 6 NO 1010,1 10
18.11.2018 08:00:00 14,0 9,6 11 6 NNO 1010,1 10
18.11.2018 07:00:00 13,7 9,5 11 6 NO 1009,9 10
18.11.2018 06:00:00 14,2 9,7 9 5 ONO 1010,2 10
18.11.2018 05:00:00 15,1 9,9 8 4 O 1010,5 10
18.11.2018 04:00:00 14,0 9,8 8 4 ONO 1011,0 10
18.11.2018 03:00:00 14,4 10,2 9 5 NO 1011,1 10
18.11.2018 02:00:00 13,0 9,7 4 2 N 1011,7 10
18.11.2018 01:00:00 13,1 9,7 9 5 N 1012,3 10
18.11.2018 00:00:00 13,8 10,4 8 4 N 1012,8 10
17.11.2018 23:00:00 14,3 10,6 4 2 N 1013,3 10
17.11.2018 22:00:00 14,8 10,5 8 4 NNO 1013,7 10
17.11.2018 21:00:00 14,9 10,9 9 5 NO 1013,8 10
17.11.2018 20:00:00 13,8 10,1 8 4 NNO 1013,9 10
17.11.2018 19:00:00 14,6 10,0 5 3 N 1013,8 16
17.11.2018 18:00:00 15,9 10,4 9 5 N 1013,6 10
17.11.2018 17:00:00 17,5 10,6 9 5 N 1013,7 10
17.11.2018 16:00:00 17,7 9,4 9 5 NNW 1013,9 10
17.11.2018 15:00:00 18,9 9,9 13 7 N 1014,0 10
17.11.2018 14:00:00 18,7 7,9 13 7 N 1014,4 10
17.11.2018 13:00:00 18,7 9,3 16 9 NNO 1015,1 10
17.11.2018 12:00:00 18,6 9,8 13 7 NO 1015,8 10
17.11.2018 11:00:00 18,2 11,0 18 10 NO 1016,2 10
17.11.2018 10:00:00 17,5 12,0 13 7 NO 1016,7 10
17.11.2018 09:00:00 16,2 12,5 8 4 N 1016,8 10
17.11.2018 08:00:00 13,9 11,1 8 4 NNW 1016,7 10
17.11.2018 07:00:00 14,3 11,4 9 5 NNO 1016,6 10
17.11.2018 06:00:00 15,0 12,0 11 6 NNO 1016,5 10
17.11.2018 05:00:00 14,2 11,2 9 5 N 1016,7 10
17.11.2018 04:00:00 15,2 12,1 11 6 NNO 1017,1 10
17.11.2018 03:00:00 16,2 12,7 9 5 NO 1017,6 10
17.11.2018 02:00:00 16,5 13,0 8 4 NNO 1017,8 10
17.11.2018 01:00:00 16,5 13,0 9 5 NNO 1018,1 10
17.11.2018 00:00:00 16,2 12,8 9 5 NNO 1018,3 10
16.11.2018 23:00:00 15,8 12,9 8 4 NNO 1018,5 10
16.11.2018 22:00:00 16,0 13,0 9 5 NNO 1018,6 10
16.11.2018 21:00:00 16,2 13,0 5 3 NNO 1018,7 10
16.11.2018 20:00:00 16,7 13,4 11 6 NO 1018,7 10
16.11.2018 19:00:00 17,1 13,8 13 7 NO 1018,5 10
16.11.2018 18:00:00 17,5 13,6 18 10 NO 1018,4 10
16.11.2018 17:00:00 18,0 13,5 18 10 ONO 1018,2 10
16.11.2018 16:00:00 18,4 14,3 18 10 ONO 1018,2 12
16.11.2018 15:00:00 18,5 14,1 21 11 ONO 1018,5 10
16.11.2018 14:00:00 18,6 14,6 22 12 ONO 1019,0 10
16.11.2018 13:00:00 18,7 14,4 24 13 ONO 1019,2 10
16.11.2018 12:00:00 19,1 14,9 21 11 ONO 1019,7 10
16.11.2018 11:00:00 18,7 14,7 21 11 ONO 1020,0 10
16.11.2018 10:00:00 18,7 14,9 18 10 ONO 1019,7 9
16.11.2018 09:00:00 18,0 14,7 18 10 ONO 1019,5 10
16.11.2018 08:00:00 17,7 14,6 16 9 ONO 1018,8 8
16.11.2018 07:00:00 17,6 14,3 22 12 ONO 1018,4 10
16.11.2018 06:00:00 17,5 14,0 15 8 ONO 1018,2 10
16.11.2018 05:00:00 17,5 14,1 15 8 NO 1018,2 10
16.11.2018 04:00:00 17,2 14,1 18 10 NO 1018,2 10
16.11.2018 03:00:00 17,4 14,6 16 9 ONO 1018,5 10
16.11.2018 02:00:00 17,6 14,7 18 10 NO 1018,5 10
16.11.2018 01:00:00 17,6 14,8 16 9 NO 1018,7 10
16.11.2018 00:00:00 17,7 15,0 18 10 ONO 1018,7 10
15.11.2018 23:00:00 18,0 15,3 18 10 NO 1018,3 10
15.11.2018 22:00:00 18,4 14,7 16 9 ONO 1018,3 10
15.11.2018 21:00:00 18,2 14,7 15 8 NO 1018,2 10
15.11.2018 20:00:00 18,4 14,4 16 9 NO 1017,6 10
15.11.2018 19:00:00 18,5 14,4 15 8 NO 1017,5 10
15.11.2018 18:00:00 18,5 14,4 15 8 NO 1017,1 10
15.11.2018 17:00:00 18,9 14,6 16 9 ONO 1017,0 10
15.11.2018 16:00:00 19,4 15,1 18 10 ONO 1017,1 15
15.11.2018 15:00:00 19,7 15,6 21 11 ONO 1017,0 10
15.11.2018 14:00:00 19,1 16,0 15 8 ONO 1017,1 8
15.11.2018 13:00:00 19,2 15,9 15 8 ONO 1017,7 7
15.11.2018 12:00:00 19,5 16,0 16 9 ONO 1018,2 10
15.11.2018 11:00:00 19,1 15,7 16 9 ONO 1018,2 10
15.11.2018 10:00:00 18,7 15,3 21 11 NO 1017,9 9
15.11.2018 09:00:00 18,2 15,3 21 11 NO 1018,0 9
15.11.2018 08:00:00 17,9 15,2 18 10 ONO 1017,4 9
15.11.2018 07:00:00 18,0 15,3 18 10 ONO 1017,1 6
15.11.2018 06:00:00 18,0 15,3 16 9 ONO 1017,3 10
15.11.2018 05:00:00 17,2 14,1 15 8 NO 1017,1 10
15.11.2018 04:00:00 17,2 14,7 16 9 NO 1017,3 10
15.11.2018 03:00:00 17,7 15,3 15 8 NO 1018,1 10
15.11.2018 02:00:00 18,1 15,4 16 9 ONO 1018,8 10
15.11.2018 01:00:00 17,7 14,6 11 6 ONO 1019,1 10
15.11.2018 00:00:00 18,1 15,0 16 9 NO 1019,4 10
14.11.2018 23:00:00 17,9 14,9 15 8 NO 1020,1 10
14.11.2018 22:00:00 18,0 14,9 18 10 ONO 1020,5 15
14.11.2018 21:00:00 18,1 14,8 18 10 NO 1020,6 10
14.11.2018 20:00:00 18,0 14,9 16 9 NO 1020,7 10
14.11.2018 19:00:00 17,9 14,8 18 10 ONO 1020,8 10
14.11.2018 18:00:00 18,1 15,4 15 8 ONO 1020,5 10
14.11.2018 17:00:00 18,2 15,1 15 8 ONO 1020,7 10
14.11.2018 16:00:00 18,2 15,1 16 9 ONO 1020,8 10
14.11.2018 15:00:00 18,7 15,4 16 9 ONO 1021,2 10
14.11.2018 14:00:00 19,1 15,8 18 10 ONO 1021,7 10
14.11.2018 13:00:00 18,6 15,4 16 9 ONO 1022,1 10
14.11.2018 12:00:00 18,7 14,5 16 9 O 1022,9 10
14.11.2018 11:00:00 18,6 13,9 18 10 ONO 1023,3 10
14.11.2018 10:00:00 18,1 13,4 11 6 ONO 1023,5 10
14.11.2018 09:00:00 15,1 11,9 5 3 N 1023,5 10
14.11.2018 08:00:00 13,3 10,2 4 2 - 1023,4 10
14.11.2018 07:00:00 12,6 10,3 5 3 N 1023,2 10
14.11.2018 06:00:00 13,2 10,9 4 2 - 1023,4 10
14.11.2018 05:00:00 13,3 11,1 9 5 N 1023,5 10
14.11.2018 04:00:00 13,5 11,3 8 4 NNW 1023,6 10
14.11.2018 03:00:00 14,6 12,3 5 3 N 1023,8 10
14.11.2018 02:00:00 15,6 13,3 9 5 NNO 1023,8 10
14.11.2018 01:00:00 16,2 13,7 13 7 NNO 1024,0 10
14.11.2018 00:00:00 14,8 12,3 8 4 NO 1024,1 10
13.11.2018 23:00:00 15,9 12,6 9 5 NO 1024,1 10
13.11.2018 22:00:00 16,5 13,0 9 5 NNO 1023,9 10
13.11.2018 21:00:00 14,9 12,2 9 5 NO 1023,8 10
13.11.2018 20:00:00 16,7 12,0 8 4 ONO 1023,8 10
13.11.2018 19:00:00 16,9 12,1 8 4 NNO 1023,4 10
13.11.2018 18:00:00 17,4 12,1 9 5 NNO 1023,0 10
13.11.2018 17:00:00 18,3 14,8 8 4 ONO 1022,9 10
13.11.2018 16:00:00 19,6 13,1 9 5 NO 1022,5 10
13.11.2018 15:00:00 20,2 14,4 15 8 ONO 1022,4 10
13.11.2018 14:00:00 19,7 14,6 15 8 O 1022,5 10
13.11.2018 13:00:00 20,1 14,3 13 7 ONO 1022,6 20
13.11.2018 12:00:00 20,2 14,6 11 6 NO 1022,8 10
13.11.2018 11:00:00 19,7 14,3 13 7 NO 1023,0 10
13.11.2018 10:00:00 19,2 15,0 9 5 NO 1022,4 10
13.11.2018 09:00:00 15,4 12,7 2 1 - 1022,1 10
13.11.2018 08:00:00 14,1 11,5 0 0 N 1021,1 10
13.11.2018 07:00:00 14,3 11,3 2 1 - 1020,6 10
13.11.2018 06:00:00 14,0 11,3 4 2 N 1020,2 10
13.11.2018 05:00:00 13,8 11,0 2 1 - 1019,9 10
13.11.2018 04:00:00 13,8 11,4 4 2 N 1019,7 10
13.11.2018 03:00:00 14,1 12,1 2 1 NW 1019,7 10
13.11.2018 02:00:00 15,2 13,3 4 2 - 1019,7 10
13.11.2018 01:00:00 15,3 13,4 5 3 NNW 1019,6 10
13.11.2018 00:00:00 16,2 14,3 2 1 - 1019,3 4,0
12.11.2018 23:00:00 16,0 14,0 4 2 - 1019,2 0,2
12.11.2018 22:00:00 16,2 13,9 5 3 N 1018,7 2,0
12.11.2018 21:00:00 15,9 13,6 5 3 N 1018,4 3,0
12.11.2018 20:00:00 15,4 12,9 5 3 NNW 1018,3 8
12.11.2018 19:00:00 16,2 13,5 4 2 - 1017,6 10
12.11.2018 18:00:00 17,7 14,9 5 3 ZW 1016,9 10
12.11.2018 17:00:00 18,9 15,0 5 3 ZW 1016,4 10

tt = temperatuur
td = dauwpunt
ff = windsnelheid
dd = windrichting
ppp = luchtdruk
vv = zicht

Weerstations in de omgeving